When you browse on this site, cookies collect data to enhance your experience and personalize the content and advertising you see.
Visit our Privacy Policy to learn more. By continuing to use the site, you agree to this use of cookies and data.
  • In Hungary
  • List of Countries
  • For 7 days
  • Water Temperature
  • Weather Map
  • News
  • Weather Widgets
  • user-avatar
    Login

    Hourly Weather Belize

    Today, 7 December, Saturday

    Time Temperature Precipitation Wind Pressure Humidity
    00:00 +21°C° 0 mm 2 mps 763 mmHg 90%
    01:00 +21°C° 0 mm 2 mps 763 mmHg 91%
    02:00 +21°C° 0 mm 2 mps 763 mmHg 91%
    03:00 +21°C° 0 mm 2 mps 763 mmHg 92%
    04:00 +21°C° 0 mm 2 mps 763 mmHg 93%
    05:00 +21°C° 0 mm 2 mps 763 mmHg 93%
    06:00 +20°C° 0 mm 3 mps 763 mmHg 94%
    07:00 +24°C° 0 mm 3 mps 764 mmHg 85%
    08:00 +26°C° 0 mm 3 mps 764 mmHg 76%
    09:00 +28°C° 0 mm 3 mps 765 mmHg 67%
    10:00 +29°C° 0 mm 3 mps 764 mmHg 61%
    11:00 +31°C° 0 mm 3 mps 764 mmHg 55%
    12:00 +33°C° 0 mm 4 mps 763 mmHg 49%
    13:00 +32°C° 0 mm 4 mps 763 mmHg 52%
    14:00 +32°C° 0 mm 4 mps 762 mmHg 55%
    15:00 +30°C° 0 mm 4 mps 762 mmHg 58%
    16:00 +28°C° 0 mm 4 mps 762 mmHg 67%
    17:00 +26°C° 0 mm 4 mps 762 mmHg 76%
    18:00 +23°C° 0 mm 4 mps 762 mmHg 85%
    19:00 +23°C° 0 mm 4 mps 763 mmHg 86%
    20:00 +22°C° 0 mm 4 mps 763 mmHg 88%
    21:00 +22°C° 0 mm 4 mps 763 mmHg 89%
    22:00 +21°C° 0 mm 3 mps 763 mmHg 91%
    23:00 +21°C° 0 mm 2 mps 763 mmHg 92%

    Tomorrow, 8 December, Sunday

    Time Temperature Precipitation Wind Pressure Humidity
    00:00 +21°C° 0 mm 2 mps 763 mmHg 94%
    01:00 +21°C° 0 mm 2 mps 763 mmHg 95%
    02:00 +20°C° 0 mm 3 mps 762 mmHg 96%
    03:00 +20°C° 0 mm 3 mps 762 mmHg 97%
    04:00 +20°C° 0 mm 3 mps 762 mmHg 98%
    05:00 +20°C° 0 mm 4 mps 762 mmHg 98%
    06:00 +20°C° 0 mm 4 mps 762 mmHg 99%
    07:00 +22°C° 0 mm 3 mps 763 mmHg 88%
    08:00 +25°C° 0 mm 3 mps 763 mmHg 78%
    09:00 +27°C° 0 mm 3 mps 764 mmHg 68%
    10:00 +29°C° 0 mm 3 mps 763 mmHg 60%
    11:00 +30°C° 0 mm 3 mps 763 mmHg 53%
    12:00 +33°C° 0 mm 4 mps 762 mmHg 45%
    13:00 +32°C° 0 mm 4 mps 761 mmHg 49%
    14:00 +30°C° 0 mm 4 mps 761 mmHg 52%
    15:00 +30°C° 0 mm 5 mps 761 mmHg 56%
    16:00 +28°C° 0 mm 5 mps 761 mmHg 65%
    17:00 +26°C° 0 mm 4 mps 761 mmHg 75%
    18:00 +23°C° 0 mm 4 mps 761 mmHg 84%
    19:00 +22°C° 0 mm 4 mps 761 mmHg 86%
    20:00 +22°C° 0 mm 4 mps 762 mmHg 88%
    21:00 +21°C° 0 mm 3 mps 762 mmHg 90%
    22:00 +21°C° 0 mm 3 mps 762 mmHg 91%
    23:00 +21°C° 0 mm 3 mps 761 mmHg 92%

    Day after tomorrow, 9 December, Monday

    Time Temperature Precipitation Wind Pressure Humidity
    00:00 +20°C° 0 mm 3 mps 761 mmHg 93%
    01:00 +20°C° 0 mm 2 mps 761 mmHg 94%
    02:00 +20°C° 0 mm 2 mps 760 mmHg 95%
    03:00 +20°C° 0 mm 2 mps 760 mmHg 96%
    04:00 +20°C° 0 mm 2 mps 760 mmHg 96%
    05:00 +20°C° 0 mm 2 mps 761 mmHg 97%
    06:00 +20°C° 0 mm 1 mps 761 mmHg 97%
    07:00 +23°C° 0 mm 1 mps 761 mmHg 87%
    08:00 +26°C° 0 mm 1 mps 762 mmHg 76%
    09:00 +28°C° 0 mm 2 mps 762 mmHg 65%
    10:00 +29°C° 0 mm 2 mps 762 mmHg 61%
    11:00 +31°C° 0 mm 2 mps 761 mmHg 56%
    12:00 +32°C° 0 mm 2 mps 761 mmHg 51%
    13:00 +31°C° 0 mm 2 mps 760 mmHg 53%
    14:00 +31°C° 0 mm 2 mps 759 mmHg 55%
    15:00 +30°C° 0 mm 3 mps 759 mmHg 56%
    16:00 +28°C° 0 mm 3 mps 759 mmHg 66%
    17:00 +26°C° 0 mm 3 mps 759 mmHg 75%
    18:00 +24°C° 0 mm 3 mps 759 mmHg 84%
    19:00 +24°C° 0 mm 3 mps 759 mmHg 86%
    20:00 +22°C° 0 mm 3 mps 760 mmHg 89%
    21:00 +22°C° 0 mm 3 mps 760 mmHg 91%
    22:00 +22°C° 0 mm 3 mps 760 mmHg 92%
    23:00 +21°C° 0 mm 3 mps 760 mmHg 93%

    10 December, Tuesday

    Time Temperature Precipitation Wind Pressure Humidity
    00:00 +21°C° 0 mm 3 mps 759 mmHg 93%
    01:00 +21°C° 0.2 mm 3 mps 759 mmHg 93%
    02:00 +21°C° 0.2 mm 3 mps 759 mmHg 93%
    03:00 +21°C° 0.2 mm 3 mps 759 mmHg 93%
    04:00 +21°C° 0.3 mm 3 mps 759 mmHg 95%
    05:00 +21°C° 0.3 mm 4 mps 759 mmHg 96%
    06:00 +21°C° 0.3 mm 4 mps 759 mmHg 98%
    07:00 +25°C° 0.5 mm 5 mps 760 mmHg 90%
    08:00 +27°C° 0.5 mm 5 mps 760 mmHg 82%
    09:00 +30°C° 0.5 mm 5 mps 761 mmHg 74%
    10:00 +32°C° 0.2 mm 5 mps 760 mmHg 69%
    11:00 +33°C° 0.2 mm 6 mps 760 mmHg 64%
    12:00 +34°C° 0.2 mm 6 mps 759 mmHg 59%
    13:00 +33°C° 0 mm 5 mps 759 mmHg 61%
    14:00 +33°C° 0 mm 5 mps 759 mmHg 63%
    15:00 +32°C° 0 mm 5 mps 758 mmHg 65%
    16:00 +30°C° 0 mm 5 mps 758 mmHg 74%
    17:00 +28°C° 0 mm 5 mps 759 mmHg 83%
    18:00 +26°C° 0 mm 5 mps 759 mmHg 92%
    19:00 +26°C° 0 mm 5 mps 759 mmHg 94%
    20:00 +26°C° 0 mm 5 mps 760 mmHg 96%
    21:00 +25°C° 0 mm 5 mps 760 mmHg 98%
    22:00 +25°C° 0.1 mm 5 mps 760 mmHg 98%
    23:00 +25°C° 0.1 mm 5 mps 760 mmHg 98%

    11 December, Wednesday

    Time Temperature Precipitation Wind Pressure Humidity
    00:00 +25°C° 0.1 mm 5 mps 760 mmHg 98%
    01:00 +25°C° 0.5 mm 5 mps 759 mmHg 98%
    02:00 +25°C° 0.5 mm 4 mps 759 mmHg 98%
    03:00 +25°C° 0.5 mm 4 mps 759 mmHg 98%
    04:00 +25°C° 2 mm 4 mps 759 mmHg 98%
    05:00 +25°C° 2 mm 4 mps 760 mmHg 98%
    06:00 +25°C° 2 mm 4 mps 760 mmHg 98%
    07:00 +26°C° 2.3 mm 4 mps 761 mmHg 95%
    08:00 +27°C° 2.3 mm 4 mps 761 mmHg 93%
    09:00 +28°C° 2.3 mm 4 mps 762 mmHg 90%
    10:00 +29°C° 1.5 mm 4 mps 762 mmHg 89%
    11:00 +29°C° 1.5 mm 4 mps 761 mmHg 87%
    12:00 +29°C° 1.5 mm 4 mps 761 mmHg 86%
    13:00 +29°C° 1.2 mm 4 mps 760 mmHg 84%
    14:00 +29°C° 1.2 mm 4 mps 760 mmHg 83%
    15:00 +29°C° 1.2 mm 4 mps 760 mmHg 81%
    16:00 +28°C° 1.5 mm 3 mps 760 mmHg 87%
    17:00 +26°C° 1.5 mm 3 mps 760 mmHg 92%
    18:00 +25°C° 1.5 mm 3 mps 760 mmHg 98%
    19:00 +25°C° 1.8 mm 3 mps 761 mmHg 98%
    20:00 +25°C° 1.8 mm 3 mps 761 mmHg 98%
    21:00 +24°C° 1.8 mm 3 mps 762 mmHg 98%
    22:00 +24°C° 1.5 mm 3 mps 762 mmHg 98%
    23:00 +24°C° 1.5 mm 3 mps 761 mmHg 98%

    12 December, Thursday

    Time Temperature Precipitation Wind Pressure Humidity
    00:00 +24°C° 1.5 mm 3 mps 761 mmHg 98%
    01:00 +24°C° 1.5 mm 3 mps 761 mmHg 98%
    02:00 +24°C° 1.5 mm 3 mps 761 mmHg 99%
    03:00 +22°C° 1.5 mm 3 mps 761 mmHg 99%
    04:00 +23°C° 0.9 mm 2 mps 761 mmHg 99%
    05:00 +23°C° 0.9 mm 2 mps 761 mmHg 99%
    06:00 +23°C° 0.9 mm 2 mps 761 mmHg 99%
    07:00 +24°C° 0.9 mm 2 mps 762 mmHg 97%
    08:00 +25°C° 0.9 mm 2 mps 762 mmHg 94%
    09:00 +26°C° 0.9 mm 2 mps 763 mmHg 92%
    10:00 +28°C° 0.5 mm 2 mps 763 mmHg 84%
    11:00 +29°C° 0.5 mm 2 mps 762 mmHg 76%
    12:00 +31°C° 0.5 mm 1 mps 762 mmHg 68%
    13:00 +31°C° 0.4 mm 2 mps 761 mmHg 68%
    14:00 +31°C° 0.4 mm 2 mps 760 mmHg 67%
    15:00 +31°C° 0.4 mm 3 mps 760 mmHg 67%
    16:00 +29°C° 0.2 mm 3 mps 760 mmHg 76%
    17:00 +27°C° 0.2 mm 3 mps 760 mmHg 85%
    18:00 +25°C° 0.2 mm 3 mps 760 mmHg 94%
    19:00 +24°C° 0.2 mm 3 mps 761 mmHg 95%
    20:00 +24°C° 0.2 mm 3 mps 761 mmHg 96%
    21:00 +24°C° 0.2 mm 3 mps 761 mmHg 97%
    22:00 +22°C° 0.4 mm 3 mps 761 mmHg 98%
    23:00 +22°C° 0.4 mm 3 mps 761 mmHg 98%
    Show more